Flag for Russia Weather past 2 weeks in Astrakhan, Russia

Now
82 °F

Clear.


Feels Like: 80 °F
Forecast: 73 / 94 °F
Wind: 8 mph from Northeast

Location: Astrakhan

Current Time: Aug 4, 2015 at 12:40:31 AM

Latest Report: Aug 4, 2015 at 12:00 AM


Visibility: 10 mi

Pressure: 30.01 "Hg

Humidity: 17%

Dew point: 34 °F

Location of AstrakhanLocation

Historic Weather in Astrakhan — Graph

°F

Astrakhan temperature yesterday

Maximum temperature yesterday: 99 °F (at 4:00 PM)
Minimum temperature yesterday: 77 °F (at 9:30 PM)
Average temperature yesterday: 87 °F

Past Weeks' High & Low Weather Summary

 TemperatureHumidityPressure
High104 °F (Aug 2, 2:00 PM)88% (Jul 20, 4:00 AM)30.07 "Hg (Jul 20, 4:00 AM)
Low59 °F (Jul 20, 4:00 AM)10% (Aug 3, 5:00 PM)29.71 "Hg (Jul 28, 3:00 PM)
Average83 °F40%29.86 "Hg
* Reported Jul 19 11:00 PM — Aug 3 11:00 PM, Astrakhan, Weather by CustomWeather, © 2015

Note: Actual official high and low records may vary slightly from our data, if they occured in-between our weather recording intervals... More about our weather records

Advertising

Astrakhan weather history for previous 24 hours

 ConditionsComfort  
Time TempWeatherWind HumidityBarometerVisibility
11:00 PM
Mon, Aug 3
79 °FClear.3 mph32%30.01 "Hg10 mi
10:30 PM81 °FClear.6 mph30%30.04 "Hg10 mi
10:00 PM79 °FClear.3 mph34%30.04 "Hg10 mi
9:30 PM77 °FPassing clouds.3 mph39%30.04 "HgN/A
9:00 PM81 °FClear.3 mph32%30.01 "Hg10 mi
8:30 PM84 °FClear.3 mph31%30.01 "Hg10 mi
8:00 PM86 °FSunny.3 mph29%30.01 "Hg10 mi
7:30 PM86 °FSunny.6 mph27%30.01 "Hg10 mi
7:00 PM88 °FSunny.8 mph25%30.01 "Hg10 mi
6:30 PM91 °FSunny.10 mph24%30.01 "Hg10 mi
6:00 PM95 °FSunny.8 mph11%30.01 "Hg10 mi
5:30 PM97 °FSunny.10 mph10%30.01 "Hg10 mi
5:00 PM97 °FPassing clouds.10 mph10%30.01 "HgN/A
4:30 PM97 °FSunny.13 mph11%30.01 "Hg10 mi
4:00 PM99 °FPassing clouds.10 mph11%30.01 "HgN/A
3:30 PM97 °FPassing clouds.15 mph13%30.01 "HgN/A
3:00 PM97 °FPassing clouds.13 mph13%30.01 "HgN/A
2:30 PM97 °FSunny.13 mph13%30.01 "Hg10 mi
2:00 PM97 °FSunny.13 mph14%30.01 "Hg10 mi
1:30 PM95 °FSunny.15 mph15%30.01 "Hg10 mi
1:00 PM95 °FPassing clouds.13 mph16%30.04 "HgN/A
12:30 PM95 °FSunny.13 mph18%30.04 "Hg10 mi
12:00 PM93 °FSunny.17 mph19%30.04 "Hg10 mi
11:30 AM93 °FSunny.15 mph19%30.04 "Hg10 mi
11:00 AM91 °FSunny.15 mph20%30.04 "Hg10 mi
10:30 AM91 °FPassing clouds.15 mph21%30.04 "HgN/A
10:00 AM90 °FSunny.15 mph21%30.04 "Hg10 mi
9:30 AM88 °FSunny.17 mph22%30.04 "Hg10 mi
9:00 AM86 °FSunny.15 mph24%30.04 "Hg10 mi
8:30 AM84 °FSunny.17 mph25%30.04 "Hg10 mi
8:00 AM84 °FSunny.15 mph25%30.07 "Hg10 mi
7:30 AM81 °FSunny.15 mph28%30.04 "Hg10 mi
7:00 AM81 °FSunny.15 mph28%30.04 "Hg10 mi
6:30 AM79 °FSunny.13 mph28%30.04 "Hg10 mi
6:00 AM79 °FSunny.15 mph28%30.04 "Hg10 mi
5:30 AM79 °FClear.13 mph28%30.04 "Hg10 mi
5:00 AM79 °FClear.15 mph26%30.04 "Hg10 mi
4:30 AM79 °FPassing clouds.13 mph26%30.04 "HgN/A
4:00 AM81 °FClear.15 mph24%30.01 "Hg10 mi
3:30 AM81 °FClear.13 mph24%30.01 "Hg10 mi
3:00 AM81 °FPassing clouds.13 mph23%30.01 "HgN/A
2:30 AM82 °FPassing clouds.15 mph21%30.01 "HgN/A
2:00 AM82 °FClear.15 mph21%30.01 "Hg10 mi
1:30 AM84 °FClear.13 mph20%30.01 "Hg10 mi
1:00 AM84 °FClear.15 mph22%30.01 "Hg10 mi
12:30 AM86 °FClear.13 mph22%29.98 "Hg10 mi
12:00 AM86 °FClear.15 mph25%29.98 "Hg10 mi
Weather by CustomWeather, © 2015

See weather overviewHow to use our weather pages